Regional Weather Roundup
Issued by NWS Cleveland, OH

Home | Current Version | Previous Version | Text Only | Print | Product List | Glossary Off
Versions: 1 2 3 4 5 6 7 8 9 10 11 12 13 14 15 16 17 18 19 20 21 22 23 24 25 26 27 28 29 30 31 32 33 34 35 36 37 38 39 40 41 42 43 44 45 46 47 48 49 50

000
ASUS41 KCLE 011100
RWRCLE
OHIO REGIONAL WEATHER ROUNDUP
NATIONAL WEATHER SERVICE WILMINGTON, OH
700 AM EDT SAT OCT 01 2016

NOTE: "FAIR" INDICATES FEW OR NO CLOUDS BELOW 12,000 FEET WITH NO
SIGNIFICANT WEATHER AND/OR OBSTRUCTIONS TO VISIBILITY.

OHZ001>008-015>018-024>027-034-035-043-044-011200-
   NORTHWEST OHIO

CITY           SKY/WX    TMP DP  RH WIND       PRES   REMARKS
DEFIANCE       CLOUDY    61  58  90 SE8       30.02R
FINDLAY        FAIR      58  54  86 SE7       30.03R
TOLEDO EXPRESS CLOUDY    59  59 100 CALM      30.03S
TOLEDO EXEC    CLOUDY    60  59  96 E6        30.04S
LIMA           FAIR      54  54 100 SE6       30.03R
$$

OHZ009>014-019>023-028>033-038-089-011200-
   NORTHEAST OHIO

CITY           SKY/WX    TMP DP  RH WIND       PRES   REMARKS
CLE-HOPKINS    CLOUDY    61  55  81 S6        30.09S
CLE-LAKEFRONT  CLOUDY    61  55  81 SE6       30.07R
CUY CO. ARPT   CLOUDY    61  57  88 SE7       30.08
LORAIN-ELYRIA  CLOUDY    58  55  90 SE6       30.07S
ASHTABULA      CLOUDY    58  57  97 SE8       30.10S
AKRON-CANTON   CLOUDY    59  54  83 SE7       30.08S
WOOSTER        NOT AVBL
MANSFIELD      FAIR      55  55 100 SE7       30.05F
YOUNGSTOWN     CLOUDY    57  55  93 E10       30.09S
$$

OHZ042-051>053-060>062-070>072-077>081-011200-
  SOUTHWEST OHIO

CITY           SKY/WX    TMP DP  RH WIND       PRES   REMARKS
CINC-COVINGTON CLOUDY    54  54 100 S5        30.03R FOG
CINC-LUNKEN    CLOUDY    54  54 100 CALM      30.04S
HAMILTON       CLOUDY    57  55  93 CALM      30.04R
DAYTON         NOT AVBL
WRIGHT-PAT AFB CLOUDY    54  54 100 CALM      30.03S
DAYTON GENERAL CLOUDY    55  52  89 SE6       30.03R
WILMINGTON     CLOUDY    52  51  97 SE5       30.04R
$$

OHZ036-037-039>041-045>050-054>059-063>069-073>076-082>088-011200-
  CENTRAL AND SOUTHEAST OHIO

CITY           SKY/WX    TMP DP  RH WIND       PRES   REMARKS
COLUMBUS       FAIR      53  53 100 E5        30.05R
OSU AIRPORT    FOG       52  52 100 E3        30.05S VSB 1/4
BOLTON FIELD   NOT AVBL
RICKENBACK AFB NOT AVBL
NEWARK         FOG       55  54  96 CALM      30.06R VSB 1/4
MARION         FOG       54  53  97 S7        30.06R VSB 1
LANCASTER      FOG       53  53 100 SE5       30.07R VSB 1/4
ZANESVILLE     FOG       57  57 100 CALM      30.07R VSB 1/4
NEW PHILLY     CLOUDY    59  57  93 SE5       30.08F
$$




USA.gov is the U.S. government's official web portal to all federal, state and local government web resources and services.